Miscellaneous Local Product
Issued by NWS North Platte, NE

Home | Current Version | Previous Version | Graphics & Text | Print | Product List | Glossary On
Versions: 1 2 3 4 5 6 7 8 9 10 11 12 13 14 15 16 17 18 19 20 21 22 23 24 25 26 27 28 29 30 31 32 33 34 35 36 37 38 39 40 41 42 43 44 45 46 47 48 49 50
000
AXUS43 KLBF 220510
MISLBF


WESTERN AND NORTH CENTRAL NEBRASKA HOURLY WEATHER ROUNDUP
NATIONAL WEATHER SERVICE NORTH PLATTE NE
1100 PM CST SUN JAN 21 2018

NOTE: "FAIR" INDICATES FEW OR NO CLOUDS BELOW 12,000 FEET WITH NO
SIGNIFICANT WEATHER AND/OR OBSTRUCTIONS TO VISIBILITY.

NOTE: STATIONS NOT REPORTING VARIABLES SUCH AS SKY/WEATHER OR
PRESSURE ARE PROVIDED BY RAWS AND APRS NETWORKS AND ARE NOT UNDER
NATIONAL WEATHER SERVICE QUALITY CONTROL.

...OBSERVATIONS IN AND NEAR THE EASTERN PANHANDLE OF NEBRASKA...

CITY           SKY/WX    TMP DP  RH WIND       PRES   REMARKS
PINE RIDGE     CLOUDY    28  24  85 N8        29.95F WCI  20
GORDON         CLOUDY    28  24  84 N20       29.90F WCI  15
CHADRON        CLOUDY    24  21  88 NW9       29.98S WCI  14
ALLIANCE       CLOUDY    26  24  92 N16       29.90S WCI  14
SIDNEY         LGT SNOW  25  23  92 N25G37    29.87S FOG     WCI   9
CRESCENT LAKE    N/A     26  25  94 N23G33      N/A  WCI  11
$$

...OBSERVATIONS IN NORTHERN NEBRASKA AND FAR SOUTHERN SOUTH DAKOTA...

CITY           SKY/WX    TMP DP  RH WIND       PRES   REMARKS
WINNER         FOG       31  28  89 N21       29.92F VSB 3/4 WCI  18
VALENTINE      LGT SNOW  31  28  89 N20       29.87F VSB 1   WCI  19
AINSWORTH      CLOUDY    29  28  99 N26G35    29.83F WCI  14
O`NEILL        LGT SNOW  32  32 100 N26G33    29.78F VSB 3/4 WCI  18
THEDFORD       CLOUDY    30  28  94 N24G32    29.78F WCI  16
BROKEN BOW     LGT SNOW  32  29  88 N30G43    29.64S FOG     WCI  18
ORD            LGT SNOW  32  31  96 NE33G46   29.65S FOG     WCI  17
ALBION         MIX PCPN  33  32  94 NE22G36   29.67F WCI  21
VALENTINE NWR    N/A     27  26  97 N18G28      N/A  WCI  14
HALSEY           N/A     27  26  97 N14G26      N/A  WCI  16
BUTTE            N/A     30  29  96 NE20G33     N/A  WCI  17
CHAMBERS         N/A     32  31  95 N7          N/A  WCI  26
EWING            N/A     32  31  96 NE12G20     N/A  WCI  23
$$

...OBSERVATIONS IN SOUTHWEST NEBRASKA AND FAR NORTHEAST COLORADO...

CITY           SKY/WX    TMP DP  RH WIND       PRES   REMARKS
WRAY           CLOUDY    28  27  93 NW26G36   29.82R WCI  13
HOLYOKE        CLOUDY    30  27  86 N32G39    29.82S WCI  15
IMPERIAL       CLOUDY    28  27  96 N29G37    29.77S FOG     WCI  12
OGALLALA       CLOUDY    29  27  93 N33G39    29.79F WCI  13
NORTH PLATTE   FOG       30  27  88 N22G36    29.72S VSB 1/2 WCI  17
MCCOOK         SNOW      30  29  96 N31G41    29.65S VSB 1/2 WCI  15
LEXINGTON      LGT RAIN  33  31  92 N14       29.64S WCI  23
STAPLETON        N/A     27  26  96 N10G20      N/A  WCI  17
GOTHENBURG       N/A     29  29 100 N14         N/A  WCI  18
CALLAWAY         N/A     29  28  96 N13         N/A  WCI  19
$$

...OBSERVATIONS IN CENTRAL LINCOLN COUNTY AREA...

CITY           SKY/WX    TMP DP  RH WIND       PRES   REMARKS
N.P. AIRPORT   FOG       30  27  88 N22G36    29.72S VSB 1/2 WCI  17
N.P. DOWNTOWN    N/A     28  27  97 N9G17       N/A  WCI  19
N.P. SOUTHEAST   N/A     28  27  95 N12G26      N/A  WCI  18
N.P. HILLCREST   N/A     29  28  95 N26G37      N/A  WCI  14
$$

...SOME OBSERVATIONS FROM AROUND THE REGION...

CITY           SKY/WX    TMP DP  RH WIND       PRES   REMARKS
DENVER         CLOUDY    25  15  66 N26G37    29.95R WCI   9
BERTHOUD PASS  HVY SNOW  -4 -15  59 N20G33    29.76R VSB 1/4 WCI -27
GRAND JUNCTION MOCLDY    20  13  74 CALM      30.19R
LARAMIE        PTCLDY     7   2  80 NW9       29.94S WCI  -7
CHEYENNE       CLOUDY    20  13  74 NW22G32   29.91S WCI   3
CASPER         MOCLDY    10   7  87 W8        30.03S WCI  -2
BISMARCK       FOG       14  13  95 NE9       30.06S VSB 1/2 WCI   2
RAPID CITY     CLOUDY    30  21  69 N16       29.98F WCI  19
PIERRE         CLOUDY    28  26  92 N16       29.97F WCI  16
SIOUX FALLS    LGT SNOW  33  29  85 NE22G29   29.85F WCI  21
OMAHA          LGT RAIN  38  36  92 N12       29.63F FOG     WCI  30
GRAND ISLAND   CLOUDY    33  33 100 NE28G37   29.59F WCI  20
SCOTTSBLUFF    CLOUDY    28  21  75 NW16      29.96S WCI  16
KANSAS CITY    CLOUDY    51  49  92 S10       29.54
HILL CITY      LGT SNOW  33  32  96 N17G26    29.58S FOG     WCI  22
WICHITA        PTCLDY    34  32  92 W9        29.61R WCI  27
DODGE CITY     CLOUDY    34  28  79 NW25G36   29.61R WCI  21
OKLAHOMA CITY  CLEAR     50  26  39 W20G28    29.72R
DALLAS         PTCLDY    62  17  17 W12       29.82R
AMARILLO       CLOUDY    33  21  61 NW20G29   29.90R WCI  21
$$




USA.gov is the U.S. government's official web portal to all federal, state and local government web resources and services.